TimeHST,TemperatureF,Dew PointF,Humidity,Sea Level PressureIn,VisibilityMPH,Wind Direction,Wind SpeedMPH,Gust SpeedMPH,PrecipitationIn,Events,Conditions,WindDirDegrees,DateUTC
12:57 AM,71.6,63.0,74,30.12,7.0,ENE,11.5,23.0,N/A,,Overcast,70,2013-02-24 10:57:00
1:57 AM,71.6,63.0,74,30.11,7.0,ENE,13.8,21.9,N/A,,Overcast,60,2013-02-24 11:57:00
2:57 AM,69.8,62.1,76,30.09,7.0,ENE,11.5,24.2,N/A,,Scattered Clouds,70,2013-02-24 12:57:00
3:57 AM,69.8,62.1,76,30.08,7.0,ENE,11.5,23.0,N/A,,Mostly Cloudy,60,2013-02-24 13:57:00
4:57 AM,69.8,62.1,76,30.08,7.0,ENE,10.4,19.6,N/A,,Scattered Clouds,60,2013-02-24 14:57:00
5:57 AM,69.8,61.0,73,30.09,7.0,NE,11.5,19.6,N/A,,Scattered Clouds,50,2013-02-24 15:57:00
6:57 AM,71.6,62.1,72,30.10,7.0,ENE,11.5,20.7,N/A,,Scattered Clouds,60,2013-02-24 16:57:00
7:57 AM,71.6,61.0,69,30.12,7.0,ENE,12.7,20.7,N/A,,Mostly Cloudy,60,2013-02-24 17:57:00
8:57 AM,73.4,61.0,65,30.13,7.0,ENE,12.7,19.6,N/A,,Mostly Cloudy,60,2013-02-24 18:57:00
9:57 AM,73.4,62.1,68,30.14,-9999.0,ENE,10.4,21.9,N/A,,Mostly Cloudy,60,2013-02-24 19:57:00
10:57 AM,73.4,62.1,68,30.14,7.0,ENE,12.7,20.7,N/A,,Partly Cloudy,60,2013-02-24 20:57:00
11:57 AM,75.2,62.1,64,30.12,7.0,ENE,12.7,21.9,N/A,,Scattered Clouds,70,2013-02-24 21:57:00
12:57 PM,76.1,63.0,64,30.09,7.0,ENE,11.5,20.7,N/A,,Scattered Clouds,70,2013-02-24 22:57:00
1:57 PM,77.0,63.0,62,30.07,7.0,ENE,12.7,19.6,N/A,,Mostly Cloudy,60,2013-02-24 23:57:00
2:57 PM,77.0,63.0,62,30.05,7.0,ENE,13.8,20.7,N/A,,Scattered Clouds,60,2013-02-25 00:57:00
3:57 PM,78.8,63.0,58,30.05,7.0,ENE,11.5,20.7,N/A,,Mostly Cloudy,60,2013-02-25 01:57:00
4:57 PM,80.6,64.0,57,30.05,7.0,ENE,12.7,19.6,N/A,,Partly Cloudy,60,2013-02-25 02:57:00
5:57 PM,78.8,64.0,60,30.07,7.0,ENE,12.7,20.7,N/A,,Scattered Clouds,70,2013-02-25 03:57:00
6:57 PM,77.0,63.0,62,30.09,7.0,ENE,15.0,23.0,N/A,,Partly Cloudy,60,2013-02-25 04:57:00
7:57 PM,75.2,63.0,66,30.11,7.0,ENE,12.7,24.2,N/A,,Partly Cloudy,60,2013-02-25 05:57:00
8:57 PM,75.2,63.0,66,30.13,7.0,ENE,12.7,19.6,N/A,,Clear,60,2013-02-25 06:57:00
9:57 PM,71.6,62.1,72,30.15,7.0,ENE,11.5,19.6,N/A,,Scattered Clouds,70,2013-02-25 07:57:00
10:57 PM,71.6,61.0,69,30.15,7.0,ENE,6.9,18.4,N/A,,Partly Cloudy,70,2013-02-25 08:57:00
11:57 PM,71.6,62.1,72,30.14,7.0,ENE,12.7,20.7,N/A,,Partly Cloudy,60,2013-02-25 09:57:00